Vorticity
6 5 4 2 5 10 13 14 15 17 18 14 7 4 7 8 7 5 5 10 14 11 9 8 6 10 11 9 7 6 5 8 11 9 8 7 5 5 5 5 3 3 5 5 4 3 5 5 4 3 3 4 4 4 4 4 5 4 5 5 4 5 4 4 4 4 4 2 2 4 3 4 3 3 3 3 4 3 4 4 4 4 3 3 2 2 2 2
7 5 3 1 2 9 13 13 11 13 14 10 6 4 5 6 7 8 10 12 14 11 8 7 8 12 10 8 6 5 7 9 10 8 6 5 5 5 5 4 2 4 5 3 2 3 5 4 3 3 3 4 4 4 4 5 6 4 5 5 3 3 2 1 2 3 4 2 2 5 5 4 4 4 4 4 4 4 5 4 4 4 4 4 3 3 4 4
6 5 4 1 0 8 12 11 8 10 12 10 7 5 5 5 7 11 12 11 13 10 8 9 11 10 7 6 4 7 11 10 9 7 4 4 5 5 4 3 4 5 4 2 3 4 4 3 4 4 4 4 5 5 4 5 5 4 4 5 3 2 2 2 3 4 4 3 4 6 5 5 5 5 4 4 5 4 5 5 4 5 4 4 3 4 4 4
6 5 5 2 1 8 12 11 8 8 10 10 8 6 6 7 10 12 10 12 12 8 8 11 11 7 5 4 3 9 12 8 7 5 3 5 5 4 3 4 6 5 3 4 5 4 3 3 4 5 4 5 5 5 5 4 3 4 3 4 4 2 2 3 4 5 4 4 4 5 5 5 5 5 5 5 5 4 5 4 5 5 4 5 5 4 4 4
8 7 6 5 4 9 13 12 9 9 9 9 8 6 8 12 13 11 11 15 12 8 9 9 8 6 4 4 7 10 9 6 6 2 3 7 6 4 4 5 5 3 3 4 4 3 3 3 4 5 5 4 5 5 4 3 2 3 3 3 4 2 3 4 4 6 6 4 4 5 4 4 4 4 5 4 4 4 5 4 4 5 4 5 5 5 5 5
10 8 7 7 8 11 13 12 12 12 10 10 8 8 13 15 11 11 14 13 10 9 8 7 7 5 4 6 10 10 7 6 5 2 5 7 5 4 5 5 3 2 4 4 3 2 3 5 5 5 5 4 5 5 4 3 2 3 2 3 4 4 4 4 4 5 5 4 4 4 4 4 4 4 4 4 4 4 4 4 4 4 4 5 5 5 6 6
10 7 8 10 12 12 10 12 13 12 14 13 10 13 16 13 9 14 14 7 8 8 6 7 6 4 6 8 9 8 7 6 3 3 7 6 4 5 5 4 3 3 4 4 3 3 4 5 5 5 5 4 4 4 4 4 3 2 3 4 5 7 5 4 5 4 4 5 4 4 4 4 4 4 3 4 4 4 4 5 4 4 4 5 5 5 6 6
9 7 9 13 14 11 9 11 11 12 16 14 13 16 15 12 12 14 12 9 9 6 6 6 4 6 9 10 8 8 9 4 2 5 6 5 5 6 5 4 4 5 5 3 3 5 6 5 5 5 4 4 4 4 4 5 3 3 4 5 6 8 6 5 5 4 4 5 4 5 4 4 5 4 4 4 4 4 4 5 5 5 5 5 5 5 5 6
9 8 10 15 13 8 7 8 10 13 15 13 14 15 12 13 15 14 9 8 8 6 7 4 5 10 10 9 6 7 7 1 2 7 6 6 7 6 4 4 5 5 5 5 5 6 6 5 5 4 4 4 4 4 4 4 4 4 5 6 7 7 6 5 5 3 4 5 5 4 4 5 6 5 4 5 4 4 4 5 6 6 6 6 5 5 5 6
11 10 11 15 12 7 7 8 11 14 15 14 14 11 9 10 14 14 6 6 9 8 6 5 9 10 7 8 5 3 5 3 5 7 5 7 7 5 4 5 6 4 4 6 6 6 6 4 4 4 4 4 4 4 5 4 5 6 5 6 7 5 4 4 4 4 4 5 5 4 4 5 6 5 5 5 5 6 5 5 6 6 6 6 6 6 6 7
14 12 12 14 10 6 8 10 13 16 15 12 11 9 8 8 8 7 3 6 8 5 4 8 11 7 4 7 4 4 5 5 8 6 6 7 5 5 5 6 5 4 6 7 6 5 5 4 3 4 4 4 4 4 5 5 6 6 6 7 6 4 4 4 4 5 5 6 5 5 5 5 6 6 6 7 6 6 6 6 6 6 7 7 6 6 6 7
15 11 9 11 8 6 8 10 14 16 14 10 9 10 12 15 9 2 4 7 4 4 7 10 10 5 4 5 5 6 5 6 9 6 6 6 5 6 6 6 5 5 7 6 5 4 4 4 3 3 4 5 4 6 6 5 7 7 6 7 4 4 6 4 4 5 6 7 6 7 7 4 6 7 6 7 7 6 7 6 6 6 6 7 7 7 7 7
12 7 5 8 8 7 8 12 15 13 11 10 9 10 10 11 6 3 6 5 3 8 11 10 8 4 4 5 6 8 6 7 8 5 5 5 6 7 6 5 6 6 6 4 4 4 3 4 5 4 4 5 5 7 6 6 7 7 6 6 4 5 7 4 5 6 5 7 6 7 8 5 5 8 8 7 7 7 7 6 6 6 6 7 8 8 7 8
9 7 6 7 6 7 9 12 13 12 9 8 10 12 8 3 5 7 5 4 7 10 10 9 6 4 3 4 8 8 5 7 7 5 5 5 6 7 6 6 7 6 4 4 3 4 4 4 6 5 4 5 6 7 6 6 7 6 5 5 5 5 6 5 5 6 4 6 6 6 9 6 4 6 6 6 7 7 7 6 6 6 7 8 8 8 8 9
9 6 7 11 9 11 15 12 13 13 10 10 10 7 4 4 8 7 4 7 10 9 8 6 4 5 2 3 9 7 6 8 6 4 5 6 7 6 7 7 6 4 3 4 4 4 4 4 5 4 5 6 5 6 7 6 7 6 5 5 6 5 6 5 5 6 4 4 5 5 8 7 6 6 4 6 7 6 7 6 6 7 8 9 8 9 9 10
10 8 9 18 15 13 17 12 12 14 13 17 14 5 4 7 6 5 7 11 10 7 7 4 4 6 3 5 9 7 7 7 5 5 5 7 7 6 7 6 3 2 2 3 4 4 4 5 4 4 6 6 5 7 8 7 5 5 4 5 5 4 5 5 5 5 4 4 4 5 7 6 8 8 4 6 7 6 6 7 7 8 8 9 9 9 10 11
10 11 11 19 16 10 15 14 12 12 11 13 10 6 8 6 5 9 12 10 6 5 5 4 5 5 5 7 7 8 9 5 4 4 5 7 6 6 7 4 2 2 1 4 5 5 5 4 4 5 4 4 8 9 8 6 5 4 4 5 5 4 4 5 5 4 4 4 4 6 7 5 6 7 6 8 7 5 6 8 8 7 8 10 10 9 10 10
7 10 12 20 20 17 18 15 13 10 6 5 6 6 5 3 8 12 10 6 4 5 5 5 6 5 7 7 6 8 7 4 4 5 6 7 6 7 6 4 3 2 3 5 5 4 5 4 5 6 1 4 11 8 6 5 5 5 4 4 6 5 4 4 5 5 5 5 4 6 7 5 5 6 8 8 6 5 8 8 7 8 10 10 9 9 10 10
6 10 14 19 24 25 21 14 12 10 3 5 10 7 3 6 12 9 5 5 5 6 5 6 8 6 7 7 6 7 6 4 4 6 8 8 7 6 4 3 2 2 3 5 6 4 3 4 6 4 2 8 10 5 4 4 4 6 4 5 5 5 5 5 5 4 5 5 4 6 7 5 5 6 9 8 5 6 9 8 7 9 11 10 9 9 10 10
7 9 12 14 19 22 20 14 13 11 4 6 9 4 4 10 10 5 4 5 6 7 5 6 10 7 7 8 7 7 5 3 4 6 7 7 8 5 2 3 2 1 3 4 6 5 3 4 6 3 4 9 8 4 5 5 5 6 4 5 5 5 5 4 5 4 5 6 4 7 9 5 4 7 9 7 4 7 9 7 8 11 11 9 9 9 9 10
7 8 9 11 14 15 16 11 7 6 5 5 4 1 7 11 7 3 5 5 6 8 5 6 9 8 7 8 7 7 5 4 4 6 6 7 8 4 1 3 1 1 2 3 5 5 4 5 5 4 5 8 7 5 6 6 6 5 4 5 4 4 5 4 5 4 4 5 3 7 9 5 4 8 9 6 5 8 8 7 10 13 11 8 8 9 10 10
6 7 8 8 10 12 15 10 3 6 9 6 3 4 10 10 5 4 5 5 5 7 6 6 7 7 7 8 7 5 3 4 5 5 6 7 6 3 2 1 1 2 3 3 4 4 5 5 5 5 4 5 5 5 6 6 5 5 5 5 5 4 4 4 5 4 3 3 3 5 8 6 4 7 8 5 6 9 8 8 11 12 10 8 8 9 10 10
6 5 7 6 7 8 10 7 2 7 10 6 5 10 12 6 3 5 6 5 5 7 7 7 6 7 8 8 7 4 3 4 6 5 6 7 5 3 3 3 2 3 3 3 3 4 5 5 5 5 5 4 4 5 5 7 6 5 5 5 5 5 5 4 4 5 3 2 3 2 6 10 5 5 8 6 8 9 8 10 12 11 9 8 8 10 10 9
7 5 7 5 5 6 6 7 5 8 7 4 8 13 9 4 4 7 7 4 5 7 7 7 6 7 9 8 5 3 3 5 4 5 6 6 5 4 5 5 3 3 3 2 3 4 5 5 5 5 5 5 5 5 5 6 6 5 5 5 6 6 6 6 4 4 2 3 5 1 5 12 4 3 8 8 8 8 8 11 11 9 9 8 9 10 9 9
7 14 13 5 4 5 6 8 8 8 5 6 12 11 6 4 4 6 7 5 7 8 8 8 7 7 8 6 5 4 4 5 5 7 7 6 6 5 5 5 3 3 2 2 3 4 5 5 5 4 5 5 5 6 6 6 6 5 6 6 7 7 6 5 4 3 2 2 4 1 3 9 5 3 7 9 7 7 9 11 10 9 9 8 9 9 9 8
11 18 17 9 7 6 7 8 6 5 8 13 13 6 3 4 4 7 9 5 8 9 8 10 8 6 7 4 4 4 4 6 6 6 6 4 5 5 4 3 2 2 2 3 4 4 5 4 5 5 5 5 5 6 6 7 7 7 8 7 7 7 5 4 4 3 3 2 4 3 2 6 7 4 6 9 8 8 10 11 10 9 8 9 9 8 8 7
13 12 12 11 10 8 9 8 3 4 10 14 9 3 4 5 5 8 9 6 9 9 8 11 9 7 9 7 5 4 4 6 5 5 5 5 5 3 3 3 3 3 3 4 5 4 5 5 6 5 5 5 5 5 6 6 8 7 8 8 7 7 5 4 4 3 4 4 5 5 2 5 9 5 5 9 9 10 12 11 10 9 8 9 8 7 7 6
10 10 11 10 8 7 7 4 2 5 10 9 4 2 4 5 6 9 10 10 11 10 8 9 8 6 6 6 8 8 7 6 6 6 5 4 4 2 4 4 3 4 4 5 6 4 6 6 5 5 5 5 4 5 5 6 7 7 8 8 7 6 4 4 4 2 4 5 4 5 3 5 9 6 5 9 10 11 12 11 9 8 8 8 7 6 6 6
6 11 10 8 8 8 6 3 3 7 9 6 2 3 4 6 7 8 11 10 9 10 8 5 6 6 3 3 6 7 7 7 5 5 4 3 3 3 4 4 3 5 5 5 5 4 5 4 5 5 4 4 4 4 5 5 7 8 8 8 6 5 4 3 4 2 4 5 3 5 5 4 7 5 5 10 13 12 12 11 9 7 7 6 6 6 5 5
3 9 9 6 8 9 7 2 4 10 9 5 2 3 5 7 8 10 11 9 7 10 10 9 7 6 6 6 7 7 6 6 5 4 4 4 4 4 4 5 5 6 5 4 4 4 5 4 5 5 4 5 4 4 5 6 7 8 8 8 6 5 4 3 4 2 3 4 3 5 5 6 9 6 6 11 12 12 12 10 8 6 6 6 6 5 4 5
2 6 8 6 8 10 7 1 7 13 8 4 3 3 7 7 8 11 9 7 8 6 5 9 8 7 8 7 8 7 6 7 6 5 5 4 4 4 5 6 5 6 5 4 4 4 5 5 5 6 5 5 4 4 5 6 8 9 7 7 5 4 4 3 3 1 1 3 3 5 6 9 11 7 8 12 12 12 12 9 7 5 5 6 5 4 4 4
4 5 7 6 6 11 7 2 11 14 5 4 5 4 8 7 8 11 8 7 11 6 2 5 5 6 8 7 8 8 7 8 7 6 5 4 5 5 5 6 5 5 5 4 5 5 6 6 6 6 5 5 5 4 5 7 8 8 7 7 5 4 4 2 1 1 1 2 3 6 8 10 10 7 10 13 11 12 12 9 7 5 5 6 4 3 4 4
6 6 8 6 7 10 6 4 12 12 4 4 5 5 9 8 9 12 9 8 11 8 5 5 3 3 5 7 8 8 7 8 6 6 5 5 6 6 5 5 4 5 5 5 6 7 7 7 7 6 6 6 5 4 6 7 8 7 7 6 4 5 6 4 3 2 2 2 4 8 10 10 9 7 9 12 10 10 11 7 6 6 5 5 4 3 3 4
7 7 7 6 8 9 6 7 12 9 3 3 5 6 8 9 9 11 10 9 10 8 5 5 4 4 5 7 8 7 7 7 6 6 6 6 6 5 5 6 6 7 7 7 7 7 8 8 7 7 6 5 5 5 7 7 7 7 6 5 4 5 5 5 5 5 5 4 5 8 9 10 11 9 10 12 9 8 9 8 7 6 4 4 3 2 3 5
10 8 6 7 9 7 5 10 10 5 3 4 6 7 8 11 11 10 9 8 7 7 7 6 6 6 7 8 7 8 7 6 6 6 6 6 5 6 7 7 7 8 7 7 7 7 8 8 8 8 6 5 6 6 6 6 7 6 5 5 5 4 5 4 4 5 6 5 6 7 8 11 11 8 11 11 7 6 7 8 7 5 4 3 2 2 3 6
11 8 7 9 10 7 8 11 7 3 4 5 7 8 9 11 11 8 7 7 6 7 7 6 6 6 7 8 7 8 7 6 6 6 6 6 6 8 8 7 8 7 7 8 7 7 8 8 9 7 7 7 7 6 6 6 6 5 5 5 5 4 4 4 5 6 6 5 7 7 7 13 12 7 10 8 4 5 6 7 8 6 5 3 2 1 2 7
10 9 10 11 9 9 11 9 3 2 5 6 8 10 10 10 9 7 7 8 7 7 6 6 7 7 7 8 8 7 6 6 7 6 6 6 7 8 7 7 8 7 8 8 7 8 7 8 9 7 8 8 6 6 6 6 6 5 5 5 6 6 5 5 6 6 7 5 7 7 8 16 15 6 9 8 3 5 7 8 10 7 5 3 2 1 3 9
10 11 11 10 10 11 9 4 3 5 6 7 9 10 11 10 9 7 7 7 6 6 5 6 7 7 7 7 6 6 6 6 7 6 6 6 7 7 7 7 7 7 8 7 7 8 6 7 8 8 7 6 5 6 6 6 6 5 6 6 7 7 6 7 6 8 9 5 8 8 7 17 18 7 9 9 2 5 7 10 10 6 4 3 1 0 2 9
11 11 9 10 11 8 4 3 5 7 6 8 10 10 9 8 7 7 6 5 5 4 5 5 6 6 7 7 6 7 7 6 6 6 6 7 6 7 6 7 7 7 7 6 6 6 4 5 6 6 6 4 6 6 5 7 5 5 8 7 8 8 6 8 7 9 8 3 9 7 4 23 24 5 6 8 1 5 9 10 10 5 4 3 1 1 2 9
10 9 8 10 7 2 4 6 7 8 9 10 11 9 7 6 6 5 4 4 4 4 4 5 6 6 6 7 7 7 7 6 7 7 7 7 6 6 6 6 5 5 5 4 5 4 3 3 3 5 6 5 6 7 6 7 6 7 9 7 10 10 7 8 6 8 7 3 10 4 -0 28 29 0 3 9 1 6 9 9 9 6 4 3 2 2 2 7
10 8 7 8 3 2 8 10 8 9 9 9 9 7 5 5 5 4 3 5 4 4 5 4 5 6 6 6 6 7 7 6 7 7 7 6 5 5 5 4 3 3 3 3 4 4 3 4 4 6 7 7 7 8 8 8 7 8 9 9 11 9 8 9 5 8 8 3 12 5 -4 24 26 -0 4 8 1 7 9 6 9 5 3 2 2 3 4 8
8 4 4 6 5 7 11 10 10 9 7 7 6 5 5 4 4 4 4 5 4 5 5 5 5 5 6 6 5 6 6 5 6 5 5 5 4 4 3 3 3 3 4 4 5 5 5 5 6 7 8 8 9 10 8 8 8 8 10 12 11 9 10 8 3 7 6 5 17 6 -9 12 17 -1 3 5 1 8 7 5 8 5 3 3 2 4 4 8
6 2 4 7 8 9 10 9 9 7 6 6 5 5 6 5 6 6 6 6 5 6 5 5 5 5 5 5 5 5 5 4 4 4 4 4 4 4 4 4 5 5 6 6 6 6 6 6 7 7 7 8 10 11 8 8 8 9 13 13 10 10 10 6 5 6 2 10 19 1 -10 10 11 -3 3 5 3 8 6 4 8 4 2 2 1 3 5 7
6 4 7 9 9 9 9 8 8 7 6 7 5 6 7 7 8 7 7 6 5 5 5 5 5 4 5 5 5 4 4 4 4 4 4 4 4 5 5 5 6 6 7 7 6 7 7 8 9 9 8 8 7 6 5 7 8 9 12 12 9 10 8 7 6 3 4 13 12 -2 -2 10 8 2 7 6 5 8 5 4 6 4 3 2 1 3 4 6
8 8 9 10 9 9 7 7 7 7 7 7 7 8 7 7 8 7 6 6 6 6 5 5 5 5 5 5 4 4 4 5 4 4 5 5 5 6 6 6 7 7 7 8 7 7 7 8 9 9 9 10 8 7 7 6 7 9 12 11 10 9 9 8 4 4 10 7 2 7 8 2 7 13 9 5 6 5 4 5 5 4 3 2 2 2 4 7
9 9 9 8 9 8 7 7 7 7 9 9 9 9 8 7 8 7 7 6 6 6 5 5 5 5 4 5 4 5 5 5 5 5 6 6 6 7 7 7 8 7 8 8 7 7 7 7 7 6 7 8 9 10 9 7 8 10 12 12 11 8 8 7 3 8 14 0 -2 16 9 -7 8 18 6 4 8 4 4 5 4 4 3 1 2 3 4 6
8 8 8 7 8 8 7 8 8 8 9 8 8 8 8 7 7 7 7 6 6 6 5 5 5 4 5 5 5 5 6 6 7 7 7 7 7 7 7 7 7 7 7 7 6 6 6 6 6 5 6 8 10 9 8 8 9 10 13 14 11 8 6 7 8 11 10 -2 1 15 7 -3 11 14 5 7 7 4 5 5 4 6 2 0 2 3 5 5
7 7 7 8 8 8 8 8 8 8 8 7 7 7 6 6 6 6 5 5 6 6 5 6 6 6 6 6 6 6 6 6 6 6 6 6 6 6 7 7 6 6 6 6 6 6 6 6 6 5 6 10 12 10 7 9 8 11 17 14 8 8 8 7 11 10 4 1 7 11 8 7 10 8 6 9 5 4 5 4 5 5 1 2 4 3 5 6
7 7 6 6 6 7 8 7 7 7 7 7 7 6 6 6 6 6 6 6 6 7 6 6 6 7 6 6 6 6 6 6 6 6 6 6 7 7 6 6 6 6 7 7 7 7 7 8 8 6 7 11 13 10 8 10 10 13 17 12 7 11 8 5 8 7 3 8 12 8 7 11 10 7 7 8 4 4 4 4 5 3 1 4 5 4 6 6
7 7 6 5 6 6 6 7 6 6 6 6 6 6 7 6 6 6 7 6 6 6 6 6 6 7 6 6 7 7 7 7 7 7 7 7 8 8 7 8 8 8 9 9 9 10 9 10 10 8 9 13 12 8 9 11 12 13 13 10 9 9 5 4 9 10 8 11 11 8 8 10 10 8 6 5 5 4 4 4 3 3 4 4 4 5 6 5
5 6 6 5 6 6 6 6 6 6 6 6 6 6 6 6 6 6 6 7 7 6 7 7 7 7 8 7 7 7 7 7 7 7 8 7 8 8 8 10 9 9 11 10 10 11 10 10 12 9 11 16 13 10 10 10 11 13 13 11 9 5 4 8 12 12 12 11 9 7 7 6 7 7 4 4 5 4 3 5 4 4 6 5 3 5 5 4
5 5 5 5 5 6 6 6 6 6 6 6 7 7 7 8 8 8 7 8 8 7 7 7 6 6 6 5 6 6 5 6 7 7 9 9 10 10 10 10 11 11 11 11 11 12 11 11 13 11 12 17 15 11 11 11 13 15 12 9 8 6 8 12 12 13 12 8 6 5 5 5 5 4 1 3 6 5 5 8 7 4 4 4 4 4 2 3
Height
5817 5817 5818 5818 5818 5818 5817 5817 5817 5818 5819 5820 5821 5822 5823 5824 5825 5826 5827 5827 5828 5829 5830 5830 5831 5832 5832 5832 5833 5833 5833 5833 5833 5834 5834 5835 5835 5835 5835 5836 5836 5836 5836 5836 5836 5836 5836 5835 5835 5834 5833 5832 5831 5830 5829 5828 5828 5827 5826 5825 5824 5823 5821 5820 5819 5818 5817 5815 5814 5813 5812 5810 5809 5807 5806 5804 5802 5800 5798 5796 5794 5792 5790 5788 5785 5783 5781 5778
5816 5817 5817 5817 5817 5817 5816 5816 5817 5817 5818 5820 5821 5822 5823 5824 5824 5825 5826 5827 5827 5828 5829 5830 5831 5831 5832 5832 5832 5833 5833 5833 5833 5833 5834 5835 5835 5835 5835 5836 5836 5836 5836 5836 5836 5836 5835 5834 5834 5833 5832 5831 5830 5829 5828 5827 5827 5826 5825 5824 5823 5822 5820 5818 5817 5816 5815 5814 5812 5812 5811 5809 5807 5805 5803 5802 5800 5798 5795 5793 5792 5790 5787 5785 5782 5779 5777 5775
5816 5816 5816 5817 5816 5816 5816 5816 5816 5817 5818 5819 5820 5821 5822 5823 5824 5824 5825 5826 5827 5827 5828 5829 5830 5831 5831 5832 5832 5832 5833 5833 5833 5833 5834 5835 5835 5835 5835 5836 5836 5836 5836 5836 5836 5835 5834 5834 5833 5832 5831 5830 5829 5828 5827 5827 5826 5825 5824 5823 5822 5820 5819 5817 5816 5815 5814 5813 5811 5810 5809 5807 5805 5803 5801 5799 5797 5795 5793 5791 5789 5787 5784 5781 5779 5776 5774 5771
5815 5815 5816 5816 5816 5815 5815 5815 5815 5816 5817 5818 5819 5820 5821 5822 5823 5824 5825 5825 5826 5827 5828 5829 5829 5830 5830 5831 5831 5831 5832 5833 5833 5833 5833 5834 5835 5835 5835 5835 5836 5836 5836 5835 5835 5834 5834 5833 5832 5831 5830 5829 5828 5827 5827 5826 5825 5824 5823 5823 5821 5819 5818 5816 5815 5814 5813 5812 5810 5808 5807 5805 5803 5801 5799 5797 5795 5793 5790 5788 5786 5783 5781 5778 5776 5773 5770 5768
5814 5815 5815 5815 5814 5814 5814 5815 5815 5816 5817 5818 5818 5819 5821 5822 5823 5824 5824 5825 5825 5826 5827 5828 5829 5829 5829 5830 5830 5831 5832 5833 5833 5833 5833 5834 5834 5835 5835 5835 5835 5835 5835 5835 5834 5833 5832 5832 5831 5830 5829 5828 5827 5827 5826 5825 5824 5823 5822 5821 5820 5819 5817 5815 5814 5813 5812 5810 5808 5806 5805 5803 5801 5799 5797 5795 5792 5790 5787 5785 5782 5780 5778 5775 5773 5770 5767 5764
5813 5814 5814 5814 5814 5814 5814 5814 5815 5815 5816 5817 5818 5819 5820 5821 5822 5823 5823 5824 5825 5826 5826 5827 5828 5829 5829 5830 5830 5830 5831 5832 5833 5833 5833 5834 5834 5835 5835 5835 5835 5834 5834 5834 5833 5832 5831 5831 5830 5829 5828 5827 5827 5826 5825 5824 5823 5822 5821 5820 5819 5818 5816 5815 5813 5811 5810 5808 5806 5805 5803 5801 5799 5797 5794 5792 5790 5787 5784 5782 5779 5777 5774 5772 5769 5767 5764 5760
5813 5813 5813 5813 5813 5813 5813 5814 5814 5815 5816 5817 5818 5819 5820 5821 5822 5822 5823 5824 5824 5825 5826 5827 5828 5829 5829 5829 5830 5830 5831 5832 5832 5832 5833 5834 5834 5834 5834 5834 5834 5834 5833 5833 5832 5832 5831 5830 5829 5828 5827 5827 5826 5825 5825 5824 5823 5821 5820 5818 5817 5817 5815 5814 5811 5809 5808 5806 5804 5802 5800 5798 5796 5794 5792 5790 5787 5784 5782 5779 5776 5774 5771 5768 5766 5763 5760 5757
5812 5812 5812 5812 5812 5812 5813 5813 5813 5814 5815 5816 5817 5818 5819 5820 5821 5822 5822 5823 5824 5825 5826 5827 5827 5828 5829 5829 5830 5831 5831 5831 5832 5832 5833 5833 5834 5834 5834 5834 5834 5833 5833 5832 5832 5831 5830 5829 5828 5828 5827 5826 5826 5825 5824 5823 5821 5820 5818 5816 5816 5815 5813 5812 5810 5808 5806 5804 5802 5800 5798 5796 5794 5791 5789 5787 5784 5781 5779 5776 5774 5771 5768 5765 5762 5759 5756 5752
5811 5811 5811 5811 5811 5812 5813 5813 5813 5814 5815 5816 5817 5818 5819 5820 5821 5822 5822 5823 5824 5825 5826 5827 5827 5828 5828 5829 5830 5831 5831 5831 5832 5832 5833 5833 5833 5833 5833 5833 5833 5833 5833 5832 5831 5830 5830 5829 5828 5827 5826 5826 5825 5824 5823 5822 5820 5819 5817 5815 5814 5813 5811 5810 5808 5806 5804 5802 5800 5798 5796 5794 5792 5789 5787 5784 5781 5779 5776 5773 5770 5767 5765 5762 5758 5755 5751 5748
5811 5811 5811 5811 5812 5812 5813 5813 5813 5814 5815 5816 5816 5817 5818 5819 5821 5821 5821 5823 5825 5825 5826 5827 5827 5828 5828 5829 5830 5830 5831 5831 5832 5832 5832 5833 5833 5833 5833 5833 5833 5832 5832 5831 5830 5829 5829 5828 5827 5827 5826 5825 5824 5823 5822 5820 5819 5817 5815 5814 5812 5810 5809 5808 5806 5804 5803 5801 5799 5796 5794 5792 5789 5787 5784 5782 5779 5776 5773 5770 5767 5764 5761 5758 5754 5751 5747 5744
5810 5810 5811 5811 5812 5812 5813 5813 5814 5814 5814 5815 5816 5817 5818 5819 5820 5821 5821 5823 5824 5825 5825 5826 5827 5827 5828 5829 5830 5830 5831 5831 5831 5832 5832 5832 5833 5833 5833 5833 5832 5832 5831 5830 5829 5828 5828 5827 5827 5826 5825 5824 5823 5822 5820 5819 5818 5816 5814 5812 5810 5808 5807 5806 5804 5802 5801 5799 5797 5795 5792 5789 5787 5784 5782 5779 5776 5773 5770 5767 5764 5761 5757 5754 5750 5747 5743 5739
5810 5811 5811 5812 5812 5813 5813 5813 5814 5814 5815 5815 5816 5817 5818 5819 5820 5820 5822 5823 5824 5825 5825 5826 5827 5827 5828 5829 5830 5830 5831 5831 5831 5831 5832 5832 5833 5833 5832 5832 5832 5831 5830 5829 5828 5828 5827 5826 5826 5825 5824 5823 5822 5820 5819 5817 5816 5814 5812 5810 5808 5807 5805 5804 5802 5800 5799 5797 5795 5793 5790 5786 5784 5781 5779 5776 5773 5770 5767 5764 5761 5757 5754 5750 5746 5742 5739 5735
5811 5811 5812 5812 5812 5813 5813 5813 5814 5814 5815 5815 5816 5817 5818 5819 5820 5821 5822 5823 5824 5825 5825 5826 5827 5827 5828 5829 5829 5830 5830 5831 5831 5831 5832 5832 5832 5832 5832 5832 5831 5830 5829 5828 5827 5827 5826 5826 5825 5824 5823 5822 5820 5819 5817 5815 5814 5812 5811 5808 5807 5805 5803 5801 5800 5798 5796 5795 5793 5791 5788 5784 5781 5779 5776 5773 5770 5767 5764 5761 5757 5753 5750 5746 5742 5738 5734 5730
5811 5811 5812 5812 5813 5813 5813 5813 5814 5815 5815 5816 5817 5817 5818 5819 5820 5822 5822 5823 5824 5825 5825 5826 5827 5827 5828 5829 5829 5830 5830 5831 5831 5831 5832 5832 5832 5832 5832 5831 5830 5829 5828 5827 5826 5826 5825 5825 5824 5823 5822 5820 5819 5817 5815 5814 5812 5810 5808 5806 5805 5803 5801 5799 5798 5796 5793 5792 5790 5788 5785 5782 5778 5776 5774 5771 5767 5764 5761 5757 5753 5749 5746 5742 5738 5734 5730 5726
5811 5811 5811 5812 5812 5812 5812 5813 5814 5814 5815 5816 5817 5817 5819 5820 5821 5822 5823 5824 5824 5825 5825 5826 5827 5827 5828 5828 5829 5829 5830 5830 5831 5831 5832 5832 5832 5831 5831 5830 5829 5828 5827 5826 5826 5825 5824 5824 5823 5821 5820 5819 5817 5815 5814 5812 5810 5808 5806 5804 5803 5801 5799 5797 5795 5793 5790 5788 5786 5784 5782 5780 5776 5773 5770 5767 5764 5761 5757 5753 5749 5745 5741 5738 5734 5730 5726 5722
5811 5811 5811 5811 5812 5812 5812 5813 5813 5814 5815 5817 5817 5817 5819 5820 5821 5822 5823 5824 5824 5825 5825 5826 5826 5827 5828 5828 5829 5829 5830 5830 5831 5831 5831 5831 5831 5831 5830 5829 5828 5827 5827 5826 5825 5824 5824 5823 5822 5820 5819 5817 5815 5813 5812 5810 5808 5806 5804 5802 5800 5798 5796 5794 5792 5790 5787 5784 5783 5781 5779 5777 5774 5771 5767 5764 5760 5757 5753 5749 5745 5741 5738 5734 5730 5726 5722 5718
5811 5811 5811 5811 5811 5812 5812 5813 5813 5814 5815 5817 5817 5818 5819 5820 5822 5823 5823 5824 5824 5825 5825 5826 5826 5827 5827 5828 5829 5829 5830 5830 5831 5831 5831 5831 5830 5830 5829 5829 5828 5827 5826 5826 5825 5824 5823 5822 5821 5819 5818 5816 5814 5812 5810 5808 5805 5803 5802 5800 5798 5796 5794 5792 5789 5787 5785 5782 5780 5778 5776 5774 5771 5768 5764 5761 5757 5753 5749 5745 5741 5738 5734 5730 5726 5722 5718 5714
5811 5811 5811 5811 5811 5812 5812 5813 5814 5815 5816 5817 5818 5819 5820 5821 5822 5823 5824 5824 5824 5824 5825 5826 5826 5827 5827 5828 5829 5829 5830 5830 5830 5830 5831 5830 5830 5829 5829 5828 5827 5826 5825 5825 5824 5824 5822 5821 5820 5818 5816 5814 5813 5811 5808 5806 5804 5802 5800 5798 5796 5793 5791 5789 5787 5785 5783 5780 5778 5775 5773 5770 5768 5764 5761 5757 5753 5749 5745 5741 5738 5734 5731 5727 5722 5718 5714 5710
5811 5811 5811 5811 5812 5812 5812 5813 5814 5816 5816 5817 5818 5820 5820 5821 5822 5823 5824 5824 5824 5824 5825 5826 5826 5827 5827 5828 5828 5829 5829 5830 5830 5830 5830 5830 5829 5829 5828 5827 5826 5825 5824 5824 5823 5822 5821 5819 5818 5816 5814 5813 5811 5808 5806 5804 5802 5801 5799 5796 5794 5792 5790 5788 5785 5783 5780 5778 5775 5772 5770 5767 5763 5760 5757 5753 5749 5745 5742 5738 5734 5730 5727 5723 5718 5714 5710 5706
5812 5812 5812 5812 5812 5813 5813 5814 5815 5816 5816 5817 5818 5820 5821 5822 5822 5823 5823 5824 5824 5824 5825 5825 5826 5826 5827 5827 5828 5828 5829 5829 5830 5830 5829 5829 5829 5828 5827 5826 5825 5824 5823 5823 5822 5820 5819 5817 5816 5814 5812 5810 5808 5806 5804 5803 5801 5799 5797 5795 5793 5791 5788 5786 5783 5781 5778 5775 5772 5769 5766 5763 5760 5756 5753 5749 5745 5742 5738 5734 5730 5726 5723 5718 5714 5710 5706 5701
5812 5813 5813 5813 5813 5813 5814 5815 5815 5816 5817 5818 5819 5820 5821 5822 5822 5823 5823 5824 5824 5824 5825 5825 5825 5826 5827 5827 5828 5828 5829 5829 5829 5829 5829 5828 5828 5827 5826 5826 5825 5824 5823 5821 5820 5819 5817 5816 5814 5812 5811 5809 5807 5805 5804 5802 5800 5798 5795 5793 5791 5789 5786 5783 5781 5779 5776 5773 5769 5766 5763 5759 5756 5753 5749 5745 5741 5738 5734 5730 5726 5723 5718 5714 5710 5706 5701 5697
5812 5813 5813 5813 5814 5814 5815 5816 5816 5816 5817 5818 5819 5821 5821 5822 5823 5823 5823 5823 5824 5824 5824 5825 5825 5826 5826 5827 5827 5828 5828 5828 5828 5828 5828 5828 5827 5827 5826 5825 5824 5823 5822 5820 5819 5817 5816 5814 5813 5811 5809 5808 5806 5804 5802 5800 5798 5796 5793 5791 5789 5786 5784 5781 5779 5776 5773 5770 5767 5763 5759 5755 5752 5749 5745 5742 5738 5734 5731 5726 5723 5719 5714 5710 5705 5701 5697 5693
5812 5813 5814 5814 5814 5815 5815 5816 5816 5817 5818 5819 5820 5821 5821 5822 5823 5823 5823 5823 5823 5824 5824 5824 5825 5826 5826 5826 5827 5827 5828 5828 5828 5828 5827 5827 5826 5826 5825 5824 5823 5822 5820 5819 5818 5816 5814 5813 5811 5810 5808 5806 5804 5802 5800 5798 5796 5793 5791 5789 5786 5783 5781 5778 5775 5773 5770 5767 5763 5760 5756 5752 5748 5745 5742 5738 5734 5730 5727 5723 5718 5714 5710 5706 5701 5697 5693 5689
5813 5813 5814 5814 5815 5815 5816 5816 5817 5818 5819 5820 5820 5821 5821 5822 5822 5823 5823 5823 5823 5823 5824 5824 5825 5825 5826 5826 5826 5827 5827 5827 5827 5827 5826 5826 5825 5824 5824 5823 5822 5820 5819 5818 5816 5815 5813 5811 5810 5808 5806 5804 5802 5800 5798 5795 5793 5791 5788 5786 5783 5780 5777 5775 5772 5769 5766 5763 5760 5757 5754 5750 5745 5742 5739 5734 5730 5727 5723 5719 5714 5710 5706 5701 5697 5693 5689 5685
5813 5813 5813 5814 5815 5816 5816 5817 5818 5819 5819 5820 5821 5821 5822 5822 5822 5822 5822 5823 5823 5823 5823 5824 5824 5825 5825 5826 5826 5826 5826 5826 5826 5826 5825 5825 5824 5823 5822 5821 5820 5819 5818 5816 5814 5813 5811 5810 5808 5806 5804 5802 5799 5797 5795 5793 5790 5788 5785 5782 5780 5777 5774 5771 5768 5765 5762 5759 5756 5753 5750 5748 5743 5738 5735 5731 5727 5723 5719 5715 5710 5706 5702 5697 5693 5689 5684 5681
5812 5813 5813 5814 5815 5816 5816 5817 5818 5819 5820 5820 5821 5821 5822 5822 5822 5822 5822 5822 5822 5823 5823 5823 5824 5824 5824 5825 5825 5825 5826 5826 5825 5825 5824 5824 5823 5822 5821 5820 5819 5817 5816 5814 5812 5811 5809 5807 5806 5803 5801 5799 5797 5795 5792 5790 5787 5785 5782 5779 5776 5774 5771 5768 5765 5762 5759 5755 5752 5748 5745 5743 5740 5734 5731 5728 5723 5719 5714 5710 5706 5701 5697 5693 5688 5684 5680 5676
5812 5813 5814 5814 5815 5816 5817 5817 5818 5819 5820 5820 5821 5821 5821 5821 5822 5822 5822 5822 5822 5822 5822 5823 5823 5823 5824 5824 5825 5825 5825 5824 5824 5824 5823 5822 5821 5821 5819 5818 5817 5815 5814 5812 5810 5809 5807 5805 5803 5801 5799 5797 5794 5792 5789 5787 5784 5781 5779 5776 5773 5771 5768 5765 5761 5758 5755 5752 5749 5745 5740 5738 5736 5731 5727 5724 5719 5714 5710 5706 5702 5697 5692 5688 5684 5680 5676 5671
5812 5813 5814 5815 5815 5816 5817 5817 5818 5819 5819 5820 5821 5821 5821 5821 5821 5821 5821 5821 5821 5821 5822 5822 5823 5823 5823 5824 5824 5824 5824 5823 5823 5822 5822 5821 5820 5819 5818 5816 5815 5813 5812 5810 5808 5807 5805 5803 5801 5798 5796 5794 5791 5789 5786 5783 5781 5778 5775 5773 5770 5768 5765 5761 5758 5755 5752 5748 5745 5742 5737 5734 5732 5727 5723 5720 5715 5710 5706 5701 5696 5692 5688 5684 5680 5675 5671 5667
5812 5813 5814 5815 5815 5816 5817 5817 5818 5819 5819 5820 5820 5821 5821 5821 5821 5821 5821 5821 5821 5821 5821 5822 5822 5823 5823 5823 5823 5823 5822 5822 5821 5821 5820 5819 5818 5817 5816 5814 5813 5811 5809 5808 5806 5804 5802 5800 5798 5796 5793 5791 5788 5785 5783 5780 5777 5775 5772 5770 5767 5764 5761 5758 5755 5752 5748 5745 5741 5738 5733 5729 5727 5723 5718 5715 5711 5706 5701 5696 5692 5688 5683 5680 5676 5671 5667 5662
5812 5813 5814 5815 5815 5816 5817 5817 5818 5818 5819 5820 5820 5820 5820 5820 5820 5820 5820 5820 5820 5821 5821 5821 5822 5822 5822 5822 5822 5821 5821 5820 5820 5819 5818 5817 5816 5815 5814 5812 5810 5809 5807 5805 5803 5801 5800 5798 5795 5793 5790 5788 5785 5782 5780 5777 5774 5772 5769 5766 5763 5761 5758 5755 5752 5748 5745 5741 5737 5734 5730 5725 5722 5718 5713 5710 5706 5702 5697 5693 5688 5683 5679 5676 5672 5667 5663 5658
5812 5813 5814 5815 5815 5816 5817 5817 5818 5818 5819 5819 5820 5820 5820 5820 5820 5820 5820 5820 5820 5821 5821 5821 5821 5821 5821 5821 5821 5820 5820 5819 5818 5817 5817 5816 5814 5813 5811 5810 5808 5806 5805 5803 5801 5799 5797 5795 5792 5790 5787 5784 5782 5779 5777 5774 5771 5769 5765 5763 5760 5757 5755 5752 5748 5745 5741 5737 5733 5729 5726 5721 5717 5712 5709 5705 5701 5697 5692 5688 5684 5680 5676 5672 5668 5663 5659 5654
5812 5813 5814 5814 5815 5816 5817 5817 5818 5818 5819 5819 5819 5819 5819 5819 5819 5820 5820 5820 5820 5820 5820 5820 5820 5820 5820 5820 5819 5819 5818 5817 5817 5816 5815 5813 5812 5811 5809 5807 5806 5804 5802 5800 5798 5796 5794 5792 5789 5786 5784 5781 5779 5776 5773 5771 5768 5766 5762 5759 5756 5753 5750 5748 5744 5741 5737 5733 5729 5724 5721 5718 5714 5708 5704 5700 5696 5692 5687 5683 5680 5676 5672 5668 5664 5659 5655 5650
5812 5813 5814 5814 5815 5816 5817 5817 5818 5818 5819 5819 5819 5819 5819 5819 5819 5819 5819 5819 5819 5819 5819 5819 5819 5819 5819 5818 5818 5817 5817 5816 5815 5814 5813 5811 5810 5808 5807 5805 5803 5801 5799 5797 5795 5793 5791 5789 5786 5784 5781 5779 5776 5773 5771 5768 5765 5762 5759 5755 5752 5748 5745 5743 5739 5736 5733 5730 5726 5721 5717 5715 5711 5705 5700 5696 5691 5688 5684 5679 5676 5672 5668 5664 5659 5655 5650 5645
5812 5813 5813 5814 5815 5816 5816 5817 5817 5818 5818 5818 5818 5818 5818 5818 5818 5818 5818 5818 5818 5818 5818 5818 5818 5818 5818 5817 5816 5816 5815 5814 5813 5812 5810 5809 5808 5806 5805 5803 5801 5799 5797 5794 5792 5790 5788 5786 5784 5781 5778 5775 5773 5770 5767 5764 5761 5759 5756 5752 5749 5745 5741 5738 5735 5732 5729 5727 5724 5719 5714 5712 5708 5701 5697 5693 5688 5684 5680 5676 5672 5667 5663 5659 5655 5650 5645 5641
5811 5812 5813 5814 5814 5815 5816 5817 5817 5818 5818 5818 5818 5818 5818 5818 5818 5818 5817 5818 5817 5817 5817 5817 5817 5817 5816 5815 5815 5814 5813 5812 5811 5810 5808 5807 5805 5804 5802 5800 5798 5796 5794 5791 5789 5787 5785 5783 5781 5778 5775 5772 5770 5767 5764 5761 5758 5755 5752 5749 5745 5742 5738 5734 5731 5727 5724 5722 5720 5716 5711 5709 5704 5697 5693 5689 5683 5679 5675 5672 5668 5663 5659 5654 5650 5645 5640 5636
5811 5812 5813 5813 5814 5815 5816 5816 5817 5817 5817 5817 5817 5817 5817 5817 5817 5817 5817 5817 5816 5816 5816 5816 5815 5815 5814 5814 5813 5812 5811 5810 5809 5807 5806 5804 5803 5801 5799 5797 5795 5793 5791 5789 5786 5784 5782 5780 5778 5775 5772 5769 5766 5764 5761 5758 5754 5751 5748 5745 5742 5738 5734 5730 5727 5723 5719 5716 5714 5711 5707 5705 5701 5693 5689 5684 5678 5674 5671 5667 5663 5659 5654 5649 5645 5640 5636 5631
5811 5812 5812 5813 5814 5814 5815 5816 5816 5817 5817 5817 5817 5817 5816 5816 5816 5816 5816 5816 5815 5815 5815 5814 5814 5813 5812 5812 5811 5810 5809 5807 5806 5805 5803 5802 5800 5799 5797 5794 5793 5790 5788 5786 5783 5781 5779 5776 5775 5772 5769 5766 5763 5760 5758 5754 5751 5747 5744 5742 5738 5734 5731 5726 5721 5718 5715 5710 5709 5706 5702 5699 5695 5689 5685 5680 5673 5669 5666 5662 5658 5654 5649 5644 5640 5635 5631 5626
5811 5811 5812 5813 5814 5814 5815 5815 5816 5816 5816 5816 5816 5816 5816 5816 5815 5815 5815 5815 5814 5814 5813 5813 5812 5811 5810 5810 5809 5808 5806 5805 5804 5802 5801 5799 5797 5796 5794 5792 5790 5788 5786 5783 5780 5778 5776 5773 5772 5770 5766 5763 5760 5757 5754 5751 5747 5744 5741 5738 5734 5730 5726 5722 5717 5713 5709 5705 5703 5701 5698 5696 5690 5683 5680 5675 5668 5664 5662 5658 5653 5649 5644 5640 5636 5631 5627 5622
5811 5811 5812 5813 5813 5814 5815 5815 5815 5815 5815 5815 5815 5815 5815 5815 5814 5814 5814 5813 5813 5813 5812 5811 5810 5810 5809 5808 5806 5805 5804 5803 5801 5800 5798 5797 5795 5793 5791 5789 5787 5785 5783 5780 5777 5775 5772 5770 5769 5767 5764 5760 5757 5754 5750 5747 5743 5740 5737 5734 5731 5727 5723 5719 5713 5708 5704 5700 5697 5694 5693 5694 5687 5678 5675 5671 5663 5660 5658 5654 5650 5645 5640 5636 5631 5627 5623 5618
5811 5812 5812 5813 5813 5814 5814 5814 5815 5815 5815 5815 5814 5814 5814 5814 5813 5813 5812 5812 5811 5811 5810 5809 5809 5808 5807 5806 5804 5803 5802 5801 5799 5797 5796 5794 5792 5790 5789 5787 5784 5782 5780 5777 5775 5772 5769 5767 5765 5763 5760 5756 5753 5750 5747 5743 5739 5736 5733 5729 5726 5723 5718 5715 5710 5705 5700 5696 5693 5688 5685 5690 5685 5674 5671 5666 5658 5656 5653 5649 5646 5641 5636 5632 5626 5622 5618 5613
5811 5812 5812 5813 5813 5813 5814 5814 5814 5814 5814 5814 5814 5813 5813 5813 5812 5812 5811 5811 5810 5809 5808 5808 5807 5806 5805 5804 5802 5801 5800 5799 5797 5795 5793 5792 5789 5787 5786 5784 5781 5779 5777 5774 5771 5769 5766 5763 5761 5759 5756 5752 5749 5746 5742 5739 5735 5731 5728 5726 5723 5718 5714 5710 5705 5703 5697 5691 5691 5683 5678 5685 5683 5671 5667 5662 5654 5652 5649 5644 5640 5636 5632 5627 5622 5617 5612 5608
5811 5812 5812 5812 5813 5813 5813 5813 5813 5813 5813 5813 5813 5812 5812 5811 5811 5810 5810 5809 5808 5808 5807 5806 5805 5804 5803 5801 5800 5799 5797 5796 5795 5793 5791 5789 5787 5785 5783 5781 5778 5776 5773 5770 5768 5765 5762 5759 5757 5755 5752 5748 5745 5742 5738 5734 5731 5727 5724 5722 5719 5715 5711 5705 5700 5698 5693 5688 5687 5680 5673 5678 5677 5667 5662 5657 5650 5648 5645 5639 5635 5631 5627 5622 5617 5612 5607 5602
5811 5811 5812 5812 5812 5812 5812 5812 5812 5812 5812 5812 5812 5811 5811 5810 5810 5809 5808 5808 5807 5806 5805 5804 5803 5802 5800 5799 5798 5796 5795 5793 5792 5790 5788 5786 5784 5782 5779 5777 5775 5772 5769 5767 5764 5761 5758 5755 5753 5751 5749 5745 5742 5738 5734 5731 5727 5723 5720 5717 5714 5710 5706 5701 5695 5691 5688 5685 5682 5674 5668 5671 5670 5663 5658 5652 5646 5644 5640 5634 5629 5626 5622 5617 5612 5607 5602 5597
5811 5811 5811 5811 5812 5812 5812 5812 5812 5811 5811 5811 5811 5810 5810 5809 5809 5808 5807 5806 5805 5804 5803 5802 5801 5799 5798 5797 5795 5794 5792 5790 5789 5787 5785 5783 5781 5778 5776 5773 5771 5768 5765 5762 5760 5757 5754 5751 5748 5745 5743 5741 5738 5734 5730 5727 5723 5719 5717 5713 5710 5706 5701 5696 5691 5686 5682 5681 5677 5668 5663 5665 5663 5658 5653 5647 5642 5640 5636 5631 5626 5621 5618 5613 5607 5602 5597 5591
5811 5811 5811 5811 5811 5811 5811 5811 5811 5811 5810 5810 5810 5809 5809 5808 5807 5806 5806 5804 5803 5802 5801 5800 5799 5797 5796 5794 5793 5791 5789 5787 5786 5784 5782 5779 5777 5775 5772 5770 5767 5764 5761 5758 5756 5753 5750 5747 5744 5740 5737 5734 5732 5729 5725 5722 5718 5715 5713 5709 5705 5702 5696 5690 5685 5680 5677 5674 5670 5664 5659 5657 5658 5655 5648 5642 5638 5634 5631 5629 5624 5618 5613 5608 5601 5596 5591 5586
5810 5811 5811 5811 5811 5811 5810 5810 5810 5810 5809 5809 5808 5808 5807 5807 5806 5805 5804 5803 5801 5800 5799 5798 5796 5795 5793 5792 5790 5788 5786 5784 5782 5780 5778 5776 5773 5771 5768 5766 5763 5760 5757 5754 5751 5749 5746 5744 5740 5736 5733 5730 5727 5724 5720 5716 5714 5711 5708 5705 5701 5696 5691 5685 5680 5676 5672 5666 5664 5663 5655 5648 5651 5650 5643 5638 5633 5628 5625 5623 5619 5614 5608 5602 5596 5590 5585 5580
5810 5810 5810 5810 5810 5810 5810 5810 5809 5809 5808 5808 5807 5807 5806 5805 5804 5803 5802 5801 5799 5798 5797 5795 5794 5792 5791 5789 5787 5785 5783 5781 5779 5777 5774 5772 5769 5767 5764 5762 5759 5756 5753 5750 5747 5744 5741 5740 5737 5732 5729 5727 5723 5720 5715 5711 5709 5707 5704 5700 5696 5690 5685 5681 5676 5672 5668 5660 5658 5660 5651 5642 5644 5643 5635 5631 5628 5622 5619 5616 5612 5608 5602 5596 5590 5584 5579 5574
5810 5810 5810 5810 5809 5809 5809 5809 5808 5808 5807 5807 5806 5805 5804 5803 5802 5801 5800 5799 5797 5796 5794 5793 5791 5789 5788 5786 5784 5782 5780 5778 5776 5773 5771 5768 5766 5763 5760 5758 5755 5752 5749 5745 5742 5739 5736 5735 5732 5728 5725 5723 5719 5715 5711 5707 5704 5702 5699 5695 5690 5684 5679 5676 5672 5668 5663 5657 5653 5653 5647 5640 5639 5635 5630 5626 5622 5616 5612 5609 5606 5602 5597 5591 5584 5578 5574 5569
5809 5809 5809 5809 5809 5808 5808 5808 5807 5806 5806 5805 5804 5803 5802 5801 5800 5799 5798 5796 5795 5793 5791 5790 5788 5786 5784 5782 5780 5778 5776 5774 5772 5769 5767 5765 5762 5759 5756 5753 5750 5748 5744 5741 5738 5734 5731 5729 5727 5723 5721 5720 5715 5710 5706 5703 5700 5698 5695 5689 5683 5679 5675 5671 5668 5664 5659 5654 5651 5646 5641 5639 5635 5629 5624 5622 5617 5610 5605 5603 5602 5598 5591 5585 5579 5574 5569 5564
5809 5809 5809 5808 5808 5807 5807 5806 5806 5805 5804 5803 5802 5801 5800 5799 5798 5797 5795 5794 5792 5791 5789 5787 5785 5783 5781 5779 5777 5775 5772 5770 5768 5765 5763 5760 5757 5754 5752 5749 5746 5743 5740 5737 5733 5730 5726 5723 5721 5717 5716 5716 5712 5706 5702 5698 5695 5694 5691 5684 5679 5675 5671 5666 5663 5660 5655 5651 5646 5640 5635 5634 5630 5624 5620 5616 5610 5605 5600 5597 5597 5593 5584 5576 5572 5568 5562 5556
5808 5808 5808 5807 5807 5806 5805 5805 5804 5803 5802 5802 5801 5799 5798 5797 5796 5794 5793 5791 5789 5788 5786 5784 5782 5780 5778 5775 5773 5771 5768 5766 5763 5761 5758 5756 5753 5750 5747 5744 5741 5738 5735 5732 5729 5725 5721 5718 5715 5711 5709 5710 5707 5702 5698 5694 5692 5689 5685 5680 5675 5671 5666 5662 5659 5657 5652 5645 5640 5635 5630 5627 5625 5620 5615 5610 5604 5599 5595 5592 5590 5586 5578 5571 5565 5560 5555 5549
5807 5807 5807 5806 5805 5805 5804 5803 5802 5802 5801 5800 5799 5797 5796 5795 5793 5792 5790 5788 5786 5784 5783 5781 5778 5776 5774 5772 5769 5767 5764 5762 5759 5756 5754 5751 5748 5745 5742 5739 5736 5733 5730 5727 5723 5720 5716 5712 5710 5706 5704 5704 5701 5697 5693 5690 5688 5684 5679 5675 5671 5666 5661 5658 5656 5654 5648 5639 5633 5630 5625 5622 5618 5613 5608 5604 5600 5595 5590 5586 5582 5576 5570 5566 5560 5553 5547 5542